Location: Bennemühlen
(52.5740°N, 9.7135°E)
Time: 21:22:49
(UTC+00:00)

Cosmos 1805 Rocket - Pass Details

Date: 19 May 2025
Orbit: 600 x 623 km, 82.5° (Epoch: 15 June)

Event Time Altitude Azimuth Distance (km) Brightness Sun altitude
Rises 23:01:16 0° 346° (NNW) 2,919 8.7 -17.4°
Reaches altitude 10° 23:03:32 10° 342° (NNW) 2,007 7.4 -17.4°
Maximum altitude 23:07:53 56° 265° (W) 742 3.9 -17.4°
Enters shadow 23:09:39 33° 202° (SSW) 1,056 4.2 -17.4°
